Regional Weather Roundup
Issued by NWS

Home | Current Version | Previous Version | Graphics & Text | Print | Product List | Glossary On
Versions: 1 2 3 4 5 6 7 8 9 10 11 12 13 14 15 16 17 18 19 20 21 22 23 24 25 26 27 28 29 30 31 32 33 34 35 36 37 38 39 40 41 42 43 44 45 46 47 48 49 50
000
ASUS43 KFSD 191410
RWRSD

WEATHER ROUNDUP FOR SOUTH DAKOTA
NATIONAL WEATHER SERVICE SIOUX FALLS SD
800 AM CST THU JAN 19 2017

NOTE: "FAIR" INDICATES FEW OR NO CLOUDS BELOW 12,000 FEET WITH NO
SIGNIFICANT WEATHER AND/OR OBSTRUCTIONS TO VISIBILITY.


SDZ001>005-009-010-012>017-191500-
NORTHWEST AND NORTH CENTRAL SOUTH DAKOTA

CITY           SKY/WX    TMP DP  RH WIND       PRES   REMARKS
BUFFALO          N/A     25  17  72 W8        29.44S WCI  16
FAITH            N/A     18  15  88 W5        29.50S WCI  11
MOBRIDGE       CLOUDY    12   7  80 S6        29.49F WCI   3
$$

SDZ012>016-024>037-041>051-057-063-072>074-191500-
SOUTHWEST AND SOUTH CENTRAL SOUTH DAKOTA

CITY           SKY/WX    TMP DP  RH WIND       PRES   REMARKS
RAPID CTY ARPT CLOUDY    24  16  71 NW6       29.50F WCI  17
PIERRE         FOG       10   8  92 CALM      29.55S VSB 3/4
CUSTER         CLOUDY    28  12  51 NW3       29.54F
ELLSWORTH AFB  CLOUDY    25  16  68 NW7       29.49F WCI  17
PHILIP         CLOUDY     7   5  91 CALM      29.54S
PINE RIDGE     CLOUDY    26  17  68 W6        29.54F WCI  19
SPEARFISH      FAIR      30  18  59 CALM      29.51F
WINNER         FAIR      34  28  79 S16       29.56F WCI  24
$$

SDZ004>011-016>023-039-040-191500-
NORTHEAST SOUTH DAKOTA

CITY           SKY/WX    TMP DP  RH WIND       PRES   REMARKS
ABERDEEN       FOG       22  19  89 SW3       29.60F VSB 1/4
WATERTOWN      CLOUDY    28  28 100 S10       29.64F WCI  19
BROOKINGS      CLEAR     32  30  92 S12       29.69R WCI  23
SISSETON         N/A     33  31  92 SE10      29.63F WCI  25
$$

SDZ017-020-022-023-036>040-048>070-191500-
SOUTHEAST SOUTH DAKOTA

CITY           SKY/WX    TMP DP  RH WIND       PRES   REMARKS
SIOUX FALLS    PTCLDY    35  33  92 S7        29.71F WCI  29
HURON          CLOUDY    33  32  96 S12       29.63S WCI  24
CHAMBERLAIN    CLOUDY    32  31  98 SE8       29.58F WCI  25
MITCHELL       CLEAR     33  32  96 SE13      29.67F WCI  24
YANKTON        CLOUDY    36  34  93 SE6       29.71S
$$

ABBREVIATIONS USED IN REMARKS
   TC - TEMPERATURE IN CELSIUS
  WCI - WIND CHILL INDEX
   HX - HEAT INDEX
  VSB - VISIBILITY




USA.gov is the U.S. government's official web portal to all federal, state and local government web resources and services.